Location: Broendl�
(44.9322°N, 12.0428°E)
Time: 03:11:54
(UTC+00:00)

Daily predictions for brighter satellites

Satellite Brightness Start Highest point End
(mag) Time Altitude Azimuth Time Altitude Azimuth Time Altitude Azimuth
CENTAUR R/B 3.7 02:03:00 37° ENE 02:03:00 37° ENE 02:07:31 10° NE
CZ-2C R/B 4.1 02:25:13 10° NE 02:29:29 28° E 02:29:29 28° E
Cosmos 1697 Rocket 4.0 02:35:00 28° NNE 02:37:00 36° NE 02:42:10 10° ESE
Cosmos 2344 3.5 02:37:40 74° NNW 02:37:40 74° NNW 02:45:12 10° NE
Lacrosse 4 Rocket 4.0 02:42:02 16° NE 02:42:02 16° NE 02:42:57 10° NE
COSMOS 2406 4.0 02:39:30 46° ESE 02:39:31 46° ESE 02:44:53 10° NE
USA 238 DEB 4.0 02:41:03 56° N 02:41:03 56° N 02:46:37 10° NE
USA 238 4.0 02:41:08 56° N 02:41:08 56° N 02:46:43 10° NE
NOSS 3-2 (A) 4.2 02:44:26 44° N 02:44:26 44° N 02:49:11 10° NNE
Lacrosse 5 rocket 3.9 02:50:06 17° ENE 02:50:06 17° ENE 02:51:13 10° ENE
ATLAS 3B R/B 3.9 02:45:39 20° SSE 02:49:15 35° ESE 02:55:08 10° NE
PAYLOAD A 4.5 02:50:28 10° NNE 02:55:32 58° E 02:55:44 58° ESE
USA 234 3.8 02:53:08 10° NE 02:59:10 41° NNW 02:59:22 41° NNW
Cosmos 1980 Rocket 3.9 02:54:44 10° N 02:59:39 30° NE 03:04:32 10° ESE
ADEOS Rocket 2.9 02:55:29 10° SSE 03:00:54 70° ENE 03:06:30 10° N
ERS-2 4.1 03:02:01 10° SE 03:04:42 28° E 03:04:42 28° E
Cosmos 2180 Rocket 4.4 03:01:27 10° N 03:07:45 86° E 03:13:55 10° S
Cosmos 1269 Rocket 4.3 03:09:19 59° N 03:09:19 59° N 03:13:38 10° NNE
Cosmos 44 Rocket 4.2 03:14:19 41° SSE 03:14:19 41° SSE 03:17:42 10° SSE
IDEFIX/ARIANE 42P 4.4 03:17:27 10° N 03:18:52 17° NNW 03:18:52 17° NNW
Cosmos 2278 4.5 03:24:43 10° NNW 03:30:14 50° ENE 03:35:42 10° SE
Cosmos 220 Rocket 4.3 03:32:31 28° N 03:34:45 66° ENE 03:39:09 10° SSE
Cosmos 1300 4.0 03:31:11 10° N 03:34:49 40° ENE 03:38:26 10° SSE
ALOS 3.1 03:30:48 10° NNE 03:35:21 50° E 03:39:53 10° S
CZ-4B R/B 2.4 03:32:08 10° SSE 03:35:27 47° ENE 03:37:09 25° NNE
Cosmos 1833 Rocket 2.6 03:33:51 40° SSW 03:36:00 84° WNW 03:41:42 10° NNE
SL-14 R/B 3.8 03:35:34 10° S 03:39:28 59° E 03:43:27 10° NNE
Cosmos 1992 Rocket 4.2 03:34:32 10° NNW 03:39:45 69° ENE 03:44:57 10° SSE
Cosmos 1626 2.2 03:39:55 70° SE 03:40:10 74° E 03:43:52 10° NNE
NOSS 3-2 (C) 3.9 03:43:21 38° WNW 03:44:16 41° NW 03:50:33 10° NNE
deb Kosmos-1763 3.9 03:46:47 85° NE 03:46:47 85° NE 03:50:19 10° NNE
deb Chang Zheng 4 4.2 03:42:42 10° NNE 03:46:53 54° ESE 03:51:03 10° S
CENTAUR R/B 3.1 03:50:12 35° WNW 03:51:49 40° NW 03:58:36 10° NNE
Cosmos 2058 Rocket 4.3 03:48:29 10° N 03:52:48 43° ENE 03:57:02 10° SSE
Cosmos 2369 3.6 03:49:30 15° NNW 03:54:12 74° WSW 03:59:48 10° SSE
Cosmos 1656 4.3 03:55:16 33° WSW 03:55:16 33° WSW 03:59:39 10° SSW
Meteor 1-24 Rocket 3.9 03:49:56 10° S 03:55:31 75° E 04:01:23 10° NNE
Cosmos 1484 Rocket 2.7 03:53:58 10° NNE 03:57:51 85° ESE 04:01:38 10° SSW
CBERS 1 LM4 rocket 4.3 03:53:39 10° N 03:58:30 60° WNW 04:02:24 15° SSW
Cosmos 2082 Rocket 2.2 03:53:17 10° SSW 03:58:54 85° ESE 04:04:32 10° NNE
Cosmos 1461 3.0 03:57:50 37° SW 03:59:33 72° NW 04:04:17 10° NNE
Cosmos 1892 Rocket 3.9 03:56:46 10° S 04:01:02 65° E 04:05:24 10° NNE
Cosmos 2026 Rocket 4.4 03:56:03 10° S 04:02:20 67° E 04:08:40 10° NNE
PSLV R/B 4.4 04:02:18 10° N 04:05:31 31° NW 04:05:31 31° NW
USA 290 2.0 04:06:41 42° SSW 04:07:39 79° WNW 04:10:55 10° NNE
SL-16 R/B 3.9 04:02:43 10° N 04:07:45 31° NE 04:12:45 10° ESE
CZ-2C R/B 2.9 04:03:15 10° N 04:07:46 36° WNW 04:08:51 32° W
CREW DRAGON DEMO-1 DEB 3.9 04:08:42 30° NNW 04:09:24 35° NNE 04:12:12 10° E
ISS -3.5 04:09:06 47° NW 04:09:30 51° NNW 04:12:48 10° NE
Cosmos 2251 Rocket 3.5 04:04:43 10° SSW 04:10:05 84° WNW 04:15:28 10° NNE
SKYMED 2 3.8 04:12:30 10° SSE 04:16:50 73° ENE 04:21:11 10° N
Lacrosse 4 Rocket 3.0 04:18:22 18° NW 04:18:22 18° NW 04:20:53 10° N
PSLV R/B 4.3 04:15:24 10° SSE 04:19:34 67° ENE 04:23:46 10° N
Cosmos 1697 Rocket 3.1 04:16:50 15° NW 04:20:59 38° WSW 04:26:09 10° S
Meteor 1-31 Rocket 2.7 04:18:39 10° N 04:22:36 68° WNW 04:26:29 10° SSW
Cosmos 1455 4.3 04:19:33 10° NNE 04:23:01 30° ENE 04:26:28 10° SE
COSMOS 2406 4.0 04:21:37 23° W 04:23:58 31° NW 04:29:00 10° N
[s.n.46727] 2.7 04:25:26 41° WNW 04:26:02 54° NNW 04:28:45 10° NE
[s.n.46723] 2.7 04:25:27 40° W 04:26:07 54° NNW 04:28:53 10° NE
[s.n.46707] 2.7 04:25:36 41° WNW 04:26:13 53° NNW 04:28:56 10° NE
[s.n.46708] 2.7 04:25:41 41° WNW 04:26:18 53° NNW 04:29:01 10° NE
[s.n.46719] 2.7 04:25:47 41° WNW 04:26:24 53° NNW 04:29:06 10° NE
[s.n.46724] 2.7 04:25:52 41° WNW 04:26:29 53° NNW 04:29:12 10° NE
[s.n.46687] 2.7 04:25:57 41° WNW 04:26:34 53° NNW 04:29:17 10° NE
[s.n.46696] 2.7 04:26:02 40° WNW 04:26:40 53° NNW 04:29:23 10° NE
[s.n.46720] 2.7 04:26:08 40° WNW 04:26:46 53° NNW 04:29:28 10° NE
[s.n.46676] 2.7 04:26:12 40° WNW 04:26:51 53° NNW 04:29:34 10° NE
Lacrosse 5 rocket 2.0 04:25:46 26° WNW 04:26:54 32° NNW 04:30:22 10° NE
[s.n.46721] 2.7 04:26:18 40° WNW 04:26:57 53° NNW 04:29:39 10° NE
[s.n.46728] 2.7 04:26:23 40° WNW 04:27:02 53° NNW 04:29:44 10° NE
[s.n.46690] 2.7 04:26:28 40° W 04:27:07 52° NNW 04:29:50 10° NE
Meteor 2-5 Rocket 3.9 04:21:39 10° SSW 04:27:08 48° WNW 04:32:48 10° N
[s.n.46694] 2.7 04:26:32 39° W 04:27:11 52° NNW 04:29:53 10° NE
[s.n.46702] 2.7 04:26:39 39° W 04:27:19 52° NNW 04:30:01 10° NE
CZ-4B R/B 3.1 04:23:16 10° NNE 04:27:19 75° ESE 04:31:35 10° S
[s.n.46679] 2.7 04:26:42 39° W 04:27:22 52° NNW 04:30:05 10° NE
[s.n.46704] 2.8 04:26:44 38° W 04:27:27 53° NNW 04:30:12 10° NE
[s.n.46712] 2.7 04:26:50 39° W 04:27:30 52° NNW 04:30:13 10° NE
[s.n.46711] 2.7 04:26:58 39° W 04:27:39 52° NNW 04:30:22 10° NE
[s.n.46684] 2.7 04:27:01 39° W 04:27:41 52° NNW 04:30:24 10° NE
[s.n.46706] 2.7 04:27:09 39° W 04:27:50 52° NNW 04:30:32 10° NE
[s.n.46678] 2.8 04:27:07 38° W 04:27:51 52° NNW 04:30:36 10° NE
[s.n.46677] 2.7 04:27:17 38° W 04:27:58 51° NNW 04:30:40 10° NE
[s.n.46671] 2.7 04:27:22 38° W 04:28:03 51° NNW 04:30:46 10° NE
[s.n.46675] 2.8 04:27:27 38° W 04:28:09 51° NNW 04:30:51 10° NE
[s.n.46674] 2.8 04:27:33 38° W 04:28:14 51° NNW 04:30:57 10° NE
[s.n.46698] 2.8 04:27:38 38° W 04:28:20 51° NNW 04:31:02 10° NE
[s.n.46699] 2.8 04:27:39 37° W 04:28:25 52° NNW 04:31:09 10° NE
[s.n.46715] 2.8 04:27:48 38° W 04:28:31 51° NNW 04:31:14 10° NE
[s.n.46714] 2.8 04:27:53 37° W 04:28:36 51° NNW 04:31:19 10° NE
[s.n.46726] 2.8 04:27:58 37° W 04:28:42 51° NNW 04:31:24 10° NE
[s.n.46703] 2.8 04:28:03 37° W 04:28:47 51° NNW 04:31:29 10° NE
[s.n.46713] 2.8 04:28:09 37° W 04:28:53 51° NNW 04:31:35 10° NE
[s.n.46717] 2.8 04:28:14 37° W 04:28:58 50° NNW 04:31:40 10° NE
[s.n.46691] 2.8 04:28:16 36° W 04:29:02 51° NNW 04:31:48 10° NE
[s.n.46693] 2.8 04:28:25 37° W 04:29:10 50° NNW 04:31:51 10° NE
[s.n.46672] 2.8 04:28:30 36° W 04:29:15 50° NNW 04:31:57 10° NE
[s.n.46701] 2.8 04:28:35 36° W 04:29:20 50° NNW 04:32:02 10° NE
[s.n.46685] 2.8 04:28:41 36° W 04:29:25 50° NNW 04:32:07 10° NE
[s.n.46709] 2.8 04:28:46 36° W 04:29:31 50° NNW 04:32:13 10° NE
[s.n.46683] 2.8 04:28:50 36° W 04:29:36 50° NNW 04:32:18 10° NE
[s.n.46695] 2.8 04:28:55 36° W 04:29:41 50° NNW 04:32:23 10° NE
[s.n.46688] 2.8 04:29:02 36° W 04:29:48 50° NNW 04:32:30 10° NE
[s.n.46729] 2.8 04:29:06 36° W 04:29:52 50° NNW 04:32:34 10° NE
FENGYUN 3A 3.8 04:24:37 10° N 04:29:55 54° WNW 04:35:11 10° SW
[s.n.46697] 2.8 04:29:09 36° W 04:29:55 50° NNW 04:32:37 10° NE
[s.n.46725] 2.8 04:29:13 35° W 04:30:01 49° NNW 04:32:42 10° NE
[s.n.46682] 2.8 04:29:19 35° W 04:30:05 49° NNW 04:32:47 10° NE
[s.n.46680] 2.8 04:29:24 35° W 04:30:11 49° NNW 04:32:54 10° NE
[s.n.46718] 2.8 04:29:30 35° W 04:30:18 49° NNW 04:32:59 10° NE
[s.n.46710] 2.8 04:29:35 35° W 04:30:22 49° NNW 04:33:04 10° NE
[s.n.46673] 2.8 04:29:46 35° W 04:30:34 49° NNW 04:33:16 10° NE
[s.n.46700] 2.8 04:29:51 35° W 04:30:39 49° NNW 04:33:21 10° NE
[s.n.46705] 2.8 04:29:56 34° W 04:30:44 49° NNW 04:33:27 10° NE
[s.n.46692] 2.8 04:30:02 34° W 04:30:51 49° NNW 04:33:33 10° NE
[s.n.46686] 2.8 04:30:07 34° W 04:30:56 49° NNW 04:33:38 10° NE
[s.n.46716] 2.8 04:30:12 34° W 04:31:02 49° NNW 04:33:44 10° NE
[s.n.46722] 2.8 04:30:17 34° W 04:31:06 48° NNW 04:33:49 10° NE
[s.n.46689] 2.8 04:30:23 34° W 04:31:12 48° NNW 04:33:55 10° NE
[s.n.46681] 2.8 04:30:28 34° W 04:31:18 48° NNW 04:33:59 10° NE
Cosmos 2360 Rocket 4.3 04:27:33 10° N 04:32:01 23° NE 04:36:25 10° E
SAR-Lupe-4 3.9 04:33:24 10° S 04:36:47 40° W 04:40:12 10° NNW
ERS-2 3.4 04:36:01 10° SW 04:38:45 20° W 04:39:17 19° W
ATLAS 3B R/B 2.8 04:33:16 10° WSW 04:39:40 53° NW 04:46:13 10° NNE
Cosmos 1726 Rocket 4.1 04:36:11 10° NNW 04:40:18 38° W 04:44:25 10° SSW
USA 234 4.4 04:35:40 10° ENE 04:41:13 31° N 04:46:42 10° WNW
Cosmos 2098 Rocket 4.2 04:35:16 10° S 04:41:16 62° E 04:46:04 10° NNE
Cosmos 1980 Rocket 2.4 04:38:30 10° NW 04:43:51 47° WSW 04:49:09 10° S
ATLAS CENTAUR R/B 3.1 04:41:41 10° S 04:45:16 33° ESE 04:48:42 10° NE
Cosmos 2228 4.0 04:41:45 10° NNW 04:45:20 25° W 04:48:54 10° SW
Abrixas rocket 2.3 04:43:59 21° W 04:45:35 45° SSW 04:48:19 10° SE
Cosmos 1092 Rocket 4.2 04:40:31 10° SSW 04:46:23 45° WNW 04:52:22 10° N
ADEOS Rocket 4.1 04:43:48 10° SW 04:47:07 16° W 04:50:29 10° NW
Envisat 4.4 04:44:12 10° NNE 04:49:03 42° E 04:53:50 10° S
ADEOS 4.2 04:46:09 10° N 04:50:50 34° WNW 04:55:28 10° SW
Cosmos 407 Rocket 3.7 04:47:09 10° SSW 04:52:14 78° ESE 04:57:26 10° NNE
Meteor 2-19 Rocket 4.5 04:46:31 10° S 04:52:37 88° ESE 04:58:43 10° N
Aureole 3 4.1 04:49:56 10° NNW 04:53:59 43° W 04:59:02 10° SSW
Cosmos 1140 Rocket 3.9 04:49:55 10° S 04:54:59 67° ESE 05:00:05 10° NNE
CZ-3 R/B 3.8 04:38:11 10° WSW 04:55:44 32° SSW 05:02:01 10° SE
Cosmos 1400 Rocket 3.7 04:53:28 10° NW 04:56:47 26° W 05:00:04 10° SSW
NOSS 8 (A) 4.5 04:55:45 10° WSW 04:58:54 44° NW 05:01:45 10° NNE
COSMO-SKYMED 1 3.2 05:01:01 10° SSW 05:04:59 35° W 05:08:59 10° NNW
CZ-4B R/B 3.5 05:06:50 10° WSW 05:07:56 11° W 05:09:03 10° WNW
S3M 4.1 05:02:31 10° N 05:08:51 87° W 05:15:14 10° S
Cosmos 2292 Rocket 3.0 05:06:14 10° S 05:09:20 87° E 05:13:08 10° N
Cosmos 1300 4.4 05:07:57 10° NW 05:10:05 14° W 05:12:12 10° WSW
Cosmos 1655 Rocket 4.1 05:03:50 10° S 05:10:07 88° E 05:16:31 10° N
ALOS 3.5 05:09:02 10° NNW 05:12:25 20° WNW 05:15:47 10° WSW
Meteor 2-10 Rocket 3.6 05:10:19 10° NNW 05:15:10 50° W 05:20:05 10° S
Cosmos 2266 Rocket 4.2 05:09:23 10° S 05:15:24 76° E 05:21:29 10° N
Cosmos 2322 Rocket 2.4 05:10:18 10° NNW 05:16:01 78° ENE 05:21:40 10° SSE
